Tracking 18840 objects as of 20-November-2017
HD Live streaming from Space Station
objects crossing your sky now

FENGYUN 1C DEB

Track FENGYUN 1C DEB now!
10-day predictions


NORAD ID: 37003
Int'l Code: 1999-025ECK
Perigee: 856.2 km
Apogee: 1,001.4 km
Inclination: 99.2 °
Period: 103.4 minutes
Semi major axis: 7299 km
RCS: 0.0127 m2 (small)
Launch date: May 10, 1999
Source: People's Republic of China (PRC)
Launch site: Taiyaun Space Center, China (TSC)

Note: This is SATELLITE DEBRIS
aabbcc
Your satellite tracking list
Your tracking list is empty




NASA's NSSDC Master Catalog

Two Line Element Set (TLE):
1 37003U 99025ECK 17308.41161060  .00000352  00000-0  29820-3 0  9990
2 37003  99.1603   9.6167 0099488 330.9778  90.6345 13.91994724416082
Source of the keplerian elements: AFSPC